Seattle Boeing, WA
on Sunday, January 27, 2013

Sunday
Previous Day Next Day
Daily Summary
 ActualAverage (KSEA)Record (KSEA)
Temperature
Mean Temperature °F 43°F  
Max Temperature 44°F 48°F 58°F (1952)
Min Temperature 41°F 37°F 11°F (1957)
Degree Days
Heating Degree Days 22 22  
Month to date heating degree days 622  
Since 1 July heating degree days 2560  
Cooling Degree Days 0 0  
Month to date cooling degree days 0  
Year to date cooling degree days 0  
Moisture
Dew Point 37°F   
Average Humidity 79    
Maximum Humidity 89    
Minimum Humidity 73    
Precipitation
Precipitation 0.01 in 0.16 in 1.61 in (1967)
Month to date precipitation 4.94  
Year to date precipitation 4.94  
Snow
Snow 0.00 in in 14.90 in (1969)
Month to date snowfall  
Since 1 July snowfall  
Snow Depth in   
Wind
Wind Speed 5 mph   
Max Wind Speed 12 mph   
Max Gust Speed 22 mph   
Visibility 10 miles   
Events Rain   

Key: T is trace of precipitation, MM is missing value
Source: NWS Daily Summary
Time(PST)TemperatureDew PointHumidity Pressure Visibility Wind DirectionWind SpeedGust SpeedPrecipitationEvents Conditions
12:53 AM 43.0°F 37.0°F 80% 30.04 in 10.0 miles Calm Calm - N/A   Overcast
1:53 AM 43.0°F 37.0°F 80% 30.04 in 10.0 miles Calm Calm - N/A   Overcast
2:43 AM 42.8°F 37.4°F 81% 30.04 in 10.0 miles SE 5.8 mph - N/A   Overcast
2:53 AM 43.0°F 37.9°F 82% 30.04 in 10.0 miles SSE 6.9 mph - N/A   Overcast
3:53 AM 43.0°F 36.0°F 76% 30.04 in 10.0 miles South 5.8 mph - N/A   Overcast
4:53 AM 43.0°F 37.0°F 80% 30.04 in 10.0 miles South 3.5 mph - N/A   Overcast
5:53 AM 43.0°F 36.0°F 76% 30.04 in 10.0 miles Calm Calm - N/A   Overcast
6:53 AM 43.0°F 35.1°F 74% 30.04 in 10.0 miles South 6.9 mph - N/A   Overcast
7:53 AM 43.0°F 36.0°F 76% 30.05 in 10.0 miles SSE 4.6 mph - N/A   Overcast
8:53 AM 43.0°F 36.0°F 76% 30.05 in 10.0 miles SSE 5.8 mph - N/A   Overcast
9:53 AM 44.1°F 37.0°F 76% 30.06 in 10.0 miles South 9.2 mph - N/A   Overcast
10:53 AM 44.1°F 37.9°F 79% 30.07 in 10.0 miles South 8.1 mph - 0.01 in Rain Light Rain
11:53 AM 44.1°F 37.0°F 76% 30.05 in 10.0 miles South 9.2 mph 21.9 mph 0.00 in   Overcast
12:53 PM 44.1°F 36.0°F 73% 30.02 in 10.0 miles South 11.5 mph 21.9 mph N/A   Overcast
1:53 PM 43.0°F 36.0°F 76% 30.01 in 10.0 miles South 11.5 mph 21.9 mph N/A   Overcast
2:53 PM 43.0°F 37.0°F 80% 30.01 in 10.0 miles South 11.5 mph 21.9 mph N/A   Overcast
3:53 PM 43.0°F 37.0°F 80% 30.00 in 10.0 miles SSE 10.4 mph - N/A   Overcast
4:53 PM 43.0°F 37.0°F 80% 30.00 in 10.0 miles SSE 10.4 mph - 0.00 in   Overcast
5:53 PM 43.0°F 36.0°F 76% 30.00 in 10.0 miles South 6.9 mph - N/A   Overcast
6:53 PM 43.0°F 36.0°F 76% 30.00 in 10.0 miles South 8.1 mph - N/A   Overcast
7:53 PM 42.1°F 36.0°F 79% 30.01 in 10.0 miles South 5.8 mph - N/A   Overcast
8:49 PM 42.8°F 35.6°F 76% 30.01 in 10.0 miles SSE 8.1 mph - N/A   Overcast
8:53 PM 42.1°F 36.0°F 79% 30.01 in 10.0 miles SSE 6.9 mph - N/A   Overcast
9:53 PM 42.1°F 37.0°F 82% 30.01 in 10.0 miles SSE 8.1 mph - N/A   Overcast
10:53 PM 42.1°F 37.0°F 82% 30.01 in 10.0 miles SSE 6.9 mph - N/A   Overcast
11:16 PM 41.0°F 37.4°F 87% 30.00 in 10.0 miles SSE 5.8 mph - N/A   Overcast
11:53 PM 41.0°F 37.9°F 89% 30.01 in 7.0 miles SE 5.8 mph - N/A   Overcast
Moon Phase
Jan. 27 Feb. 03 Feb. 10 Feb. 17 Feb. 25
Sunrise:07:41 AM (PST) Moon Rise:06:11 PM (PST)
Sunset:05:03 PM (PST) Moon Set:07:30 AM (PST)

Copyright © 2014 The Weather Underground, Inc.